Temperature
12 12 12 12 12 12 12 12 12 11 11 11 11 11 11 11 11 11 11 11 11 11 11 11 11 11 11 11 10 10 10 10 10 10 10 10 10 10
12 12 12 12 12 11 12 11 11 11 11 11 11 11 11 11 11 11 11 11 11 11 11 11 11 10 10 10 10 10 10 10 10 10 10 10 10 10
12 12 12 11 11 11 11 11 11 11 11 11 11 11 11 11 11 11 11 11 11 11 11 10 10 10 10 10 10 10 10 10 10 10 10 10 10 10
11 11 11 11 11 11 11 11 11 11 11 11 10 10 10 10 10 10 10 10 10 10 10 10 10 10 10 10 10 10 10 10 10 10 10 10 10 10
11 11 11 11 11 11 11 11 11 11 11 10 10 10 10 10 10 10 10 10 10 10 10 10 10 10 10 10 10 10 10 10 10 10 10 10 10 9
11 11 11 11 11 10 10 10 10 10 10 10 10 10 10 10 10 10 10 10 10 10 10 10 10 10 10 10 9 9 10 9 10 9 9 9 9 9
11 10 10 10 10 10 10 10 10 10 10 10 10 10 10 10 10 10 10 10 10 10 10 10 9 9 9 9 9 9 9 9 9 9 9 9 9 9
10 10 10 10 10 10 10 10 10 10 10 9 9 9 9 9 9 9 9 9 9 9 9 9 9 9 9 9 9 9 9 9 9 9 9 9 9 9
10 10 10 10 10 9 9 9 9 9 9 9 9 9 9 9 9 9 9 9 9 9 9 9 9 9 9 9 9 8 8 8 8 8 8 8 8 8
9 9 9 9 9 9 9 9 9 9 9 9 9 9 9 9 9 9 9 8 8 8 8 8 8 8 8 8 8 8 8 8 8 8 8 8 8 8
9 9 9 9 9 9 9 9 9 9 9 8 8 8 8 8 8 8 8 8 8 8 8 8 8 8 8 8 8 8 8 8 8 8 7 7 7 7
8 8 8 8 8 8 8 8 8 8 8 8 8 8 8 8 8 8 8 8 8 7 8 7 7 7 7 7 7 7 7 7 7 7 7 7 7 7
8 8 8 8 8 8 7 7 7 7 7 8 8 8 8 8 8 7 7 7 7 7 7 7 7 7 7 7 7 7 7 7 7 7 7 6 6 6
7 7 7 7 7 7 7 7 7 7 7 7 7 7 7 7 7 7 7 7 7 7 7 7 7 7 6 6 6 6 6 6 6 6 6 6 6 6
7 7 6 6 6 6 7 6 6 6 6 6 6 6 6 6 6 6 6 6 6 6 6 6 6 6 6 6 6 6 6 6 6 6 6 6 6 6
6 6 6 6 6 6 6 6 6 6 5 6 6 6 6 6 6 6 6 6 6 6 6 6 6 6 6 6 5 5 5 5 5 5 5 5 5 5
6 6 6 6 5 5 5 5 5 5 5 5 5 5 5 5 5 5 5 5 5 5 5 6 5 5 5 5 5 5 5 5 5 5 5 5 5 5
5 5 5 5 5 5 5 5 5 5 5 5 5 5 5 5 5 5 5 5 5 5 5 5 5 5 5 5 4 4 5 5 5 4 4 4 5 4
5 5 5 5 4 4 4 4 4 4 4 4 4 4 4 4 4 4 4 4 4 4 4 4 4 4 4 4 4 4 4 4 4 4 4 4 4 4
5 4 4 4 4 4 4 4 4 4 4 4 4 4 4 4 4 4 4 4 4 4 4 4 4 4 4 4 3 4 3 4 4 4 4 4 3 3
4 4 4 4 4 4 4 3 3 3 3 3 3 3 3 3 3 3 3 3 3 3 3 3 3 3 3 3 3 3 3 3 3 3 3 3 3 3
4 4 3 3 3 3 3 3 3 3 3 2 2 2 2 3 3 3 3 3 3 3 3 3 3 3 3 3 3 3 3 3 3 2 2 2 2 2
3 3 3 3 3 3 2 2 2 2 2 2 2 2 2 2 2 2 2 3 2 3 3 3 3 2 2 2 2 2 2 2 2 2 2 2 2 2
Wind_Speed
2 2 1 1 1 2 2 3 3 1 2 3 2 2 2 2 3 2 2 2 1 0 0 0 1 1 1 1 1 2 2 2 2 2 2 2 2 2
2 2 1 1 1 1 2 2 2 3 2 2 2 2 2 2 3 2 3 2 2 2 1 1 1 1 1 1 1 1 2 2 2 2 2 2 1 1
1 2 2 2 1 1 1 1 1 2 2 2 1 1 1 1 2 2 2 3 3 3 3 2 2 2 2 2 1 2 2 2 2 3 3 3 2 1
2 2 2 1 1 1 2 2 2 2 3 2 2 1 2 2 1 1 1 2 2 4 4 4 3 3 3 3 3 2 2 2 3 3 4 4 3 3
3 3 3 2 2 1 2 2 2 2 2 2 2 1 1 1 1 1 1 1 2 3 4 4 4 4 4 4 3 3 3 3 3 3 4 4 4 4
2 2 3 3 3 3 2 2 2 2 1 1 2 1 1 1 0 1 2 1 2 2 2 2 3 4 5 4 4 4 4 3 3 3 4 4 4 4
2 2 3 4 4 3 2 2 3 2 2 1 1 1 1 1 2 1 2 2 2 1 1 1 2 2 3 4 5 4 4 3 4 4 4 4 4 4
2 2 3 3 3 3 4 3 4 4 4 3 2 3 3 3 2 2 1 1 2 1 1 2 1 2 3 4 5 4 4 3 3 3 3 3 3 3
3 3 2 2 2 2 3 3 4 5 5 4 4 5 4 5 3 3 3 3 3 2 1 2 1 2 3 4 5 4 4 4 3 3 3 3 2 2
3 4 3 3 3 3 2 2 3 4 5 4 5 6 5 5 5 5 4 2 2 1 2 2 2 2 2 3 5 5 5 4 3 3 2 2 2 2
3 3 3 3 4 3 2 3 3 4 4 6 6 6 6 5 4 2 2 2 2 2 2 2 2 2 1 2 3 4 4 4 4 3 3 2 2 2
2 2 3 3 4 3 3 3 4 4 3 2 3 3 3 3 5 5 4 3 2 3 3 3 2 1 1 1 1 2 2 3 4 4 3 3 2 1
2 3 3 4 4 4 3 3 5 4 2 2 2 1 1 1 2 3 4 4 4 4 4 3 2 2 2 2 1 2 2 1 2 2 3 4 3 3
3 3 4 5 5 4 3 4 4 2 1 1 1 2 2 3 3 3 4 4 4 5 5 5 3 4 3 2 2 1 2 2 2 1 2 2 3 3
3 4 4 4 3 2 3 3 2 1 1 1 2 3 3 3 2 1 1 1 2 2 3 5 3 3 3 3 3 2 2 2 2 2 2 2 2 2
2 2 3 2 1 1 2 2 2 2 2 3 3 3 2 1 2 2 2 1 2 2 2 3 4 4 4 3 4 3 3 2 2 2 2 2 3 3
1 0 0 1 1 1 1 2 2 1 2 2 2 2 2 3 3 2 2 2 2 3 2 1 1 1 3 4 3 4 3 3 2 2 2 2 3 4
2 1 2 2 3 3 3 3 2 3 3 3 3 3 3 3 3 2 2 3 3 3 3 2 1 0 1 2 4 4 3 3 2 3 3 3 4 4
2 2 3 4 4 4 3 3 3 3 2 3 3 3 3 3 3 3 3 3 3 3 3 2 2 3 3 4 3 4 4 3 2 2 3 3 4 4
2 3 3 3 3 3 3 3 3 3 2 3 3 3 4 3 4 4 4 4 4 3 3 2 3 4 5 4 3 2 4 4 3 3 3 2 2 4
3 3 3 3 3 3 3 3 3 3 3 3 3 3 3 3 4 4 4 5 4 4 4 5 5 5 2 1 1 2 2 4 5 3 3 2 1 1
3 3 3 3 3 3 3 3 3 3 3 3 3 3 3 3 4 5 4 4 4 4 5 4 2 2 3 4 4 3 2 1 3 4 5 5 3 3
3 3 3 3 3 3 3 3 4 3 3 3 3 3 4 4 4 4 5 5 4 4 3 3 2 2 3 4 4 3 3 2 1 1 3 6 7 7
Wind_Direction
184 183 189 207 190 193 181 176 170 205 274 290 304 308 292 288 295 264 249 267 274 263 341 7 15 6 338 322 354 5 4 3 4 3 358 349 351 8
178 174 196 208 192 195 187 190 184 183 228 271 265 288 292 288 287 268 243 257 260 255 254 256 270 288 303 290 298 304 313 320 330 329 319 318 315 342
188 184 217 201 184 197 173 168 179 168 195 270 278 298 281 295 319 285 259 239 243 244 241 251 250 254 247 248 285 283 281 298 306 316 320 311 306 298
209 195 221 205 199 198 175 184 192 188 184 228 273 277 269 278 296 303 293 263 248 248 239 243 245 253 253 244 249 259 269 283 286 294 301 300 291 290
211 210 221 189 205 206 195 199 201 198 190 202 249 253 281 302 323 309 318 306 280 261 243 241 245 251 252 243 242 250 253 266 271 278 289 290 282 277
218 218 219 204 208 202 205 206 191 181 179 197 239 251 266 283 272 269 309 306 293 284 245 246 251 249 245 240 242 245 246 253 262 271 278 277 268 259
221 228 231 221 220 210 209 199 181 179 180 196 232 247 248 250 247 233 250 295 289 255 239 267 257 254 246 242 242 240 244 256 262 266 273 271 261 250
227 249 249 231 238 235 236 218 195 190 198 199 220 230 240 230 225 231 223 265 279 256 198 266 204 243 252 235 235 235 239 248 259 263 269 276 265 249
224 235 254 252 247 233 247 245 234 231 215 202 212 230 230 221 201 216 226 227 241 243 184 256 232 249 261 246 232 232 238 243 249 261 265 271 269 258
225 219 224 248 238 229 219 244 254 253 241 231 225 235 231 214 203 208 212 223 265 259 187 230 239 248 277 257 234 229 233 233 237 243 259 271 264 255
241 228 225 235 253 249 208 234 263 276 267 253 251 253 252 234 197 161 172 190 257 255 200 204 228 241 257 257 242 231 226 231 239 245 242 247 257 250
261 252 244 243 258 249 223 221 245 263 272 286 282 275 257 229 210 196 197 204 223 243 204 186 206 191 259 248 237 240 229 241 240 234 235 233 231 202
241 249 251 254 256 249 245 227 243 251 240 238 258 278 286 237 221 215 210 207 213 235 207 181 194 202 216 248 266 241 218 229 226 234 245 238 226 199
234 239 244 250 250 248 246 254 262 266 197 217 248 259 256 251 244 240 232 232 235 234 213 192 196 196 196 235 248 243 236 223 200 225 244 241 232 229
236 244 250 249 245 249 259 263 257 216 199 222 242 254 254 249 241 257 266 261 284 269 216 205 199 196 195 213 221 218 229 236 211 218 220 221 223 221
251 245 256 254 240 255 272 261 234 223 223 231 243 256 262 248 241 231 245 256 271 287 293 232 205 187 204 215 208 216 214 215 215 220 217 232 238 229
212 201 204 236 245 269 277 263 248 239 248 251 246 253 257 250 251 241 235 232 235 249 265 308 310 228 212 198 202 214 214 224 222 208 205 239 249 248
196 211 224 223 231 238 244 251 248 245 244 247 243 241 245 246 242 234 232 227 237 243 240 224 187 41 342 294 214 204 209 221 225 213 206 226 255 258
215 220 226 225 233 236 236 236 240 247 242 244 249 247 247 249 244 234 232 235 241 244 238 212 198 199 217 245 257 208 201 213 209 213 221 226 247 263
226 226 232 231 232 232 234 238 244 246 244 247 252 253 246 244 239 235 233 231 234 237 237 223 216 217 221 227 230 241 218 206 207 222 231 243 267 283
241 242 240 235 235 233 234 238 241 243 245 249 254 260 255 246 245 242 236 236 235 233 232 236 239 234 222 176 212 250 254 236 222 220 206 208 251 254
240 247 250 244 242 241 239 238 242 245 247 249 253 257 257 250 251 248 234 230 233 235 241 241 220 200 202 213 227 236 240 264 260 243 225 213 199 211
238 241 244 241 241 241 239 236 236 243 243 247 253 257 254 254 257 253 241 234 232 232 235 232 218 215 219 216 225 232 228 224 216 240 272 260 249 254
Height
1531 1532 1532 1532 1532 1532 1532 1532 1532 1531 1531 1532 1532 1532 1532 1532 1532 1532 1532 1532 1532 1532 1532 1533 1533 1533 1533 1534 1534 1534 1534 1535 1535 1535 1535 1535 1535 1535
1529 1530 1530 1530 1530 1530 1530 1530 1530 1530 1529 1530 1530 1531 1531 1531 1530 1530 1530 1530 1530 1530 1530 1531 1531 1531 1532 1532 1532 1532 1532 1533 1533 1533 1534 1534 1534 1533
1527 1527 1527 1528 1528 1528 1528 1528 1528 1528 1527 1528 1528 1529 1529 1528 1528 1528 1528 1528 1528 1528 1528 1529 1529 1529 1529 1529 1530 1530 1530 1531 1531 1531 1531 1531 1531 1531
1524 1524 1525 1525 1525 1525 1525 1526 1526 1526 1525 1525 1525 1526 1526 1526 1526 1526 1526 1525 1526 1526 1526 1526 1526 1527 1527 1527 1527 1527 1528 1528 1528 1528 1528 1528 1528 1528
1521 1521 1522 1522 1522 1522 1523 1523 1523 1523 1523 1523 1522 1523 1523 1523 1523 1523 1523 1523 1523 1523 1523 1523 1524 1524 1524 1524 1524 1525 1525 1525 1525 1525 1525 1525 1525 1525
1518 1518 1519 1519 1519 1519 1519 1520 1520 1520 1520 1520 1520 1519 1520 1520 1520 1520 1520 1520 1520 1521 1521 1521 1521 1522 1522 1522 1522 1522 1522 1522 1522 1522 1522 1522 1522 1522
1515 1515 1515 1516 1516 1516 1517 1517 1517 1517 1517 1517 1516 1516 1516 1517 1517 1517 1517 1517 1517 1517 1517 1518 1518 1518 1518 1518 1518 1518 1519 1519 1519 1519 1518 1518 1518 1518
1511 1511 1512 1512 1512 1513 1514 1514 1514 1514 1513 1513 1513 1513 1513 1514 1514 1514 1514 1513 1513 1514 1514 1514 1514 1514 1515 1515 1515 1515 1515 1515 1515 1515 1515 1515 1515 1515
1507 1508 1508 1508 1509 1509 1510 1510 1510 1510 1511 1511 1510 1510 1510 1510 1510 1510 1510 1510 1509 1510 1510 1509 1510 1510 1511 1511 1511 1511 1511 1511 1512 1512 1512 1512 1512 1512
1504 1504 1504 1504 1505 1506 1506 1506 1506 1506 1506 1506 1507 1507 1507 1507 1507 1507 1506 1506 1506 1507 1507 1506 1506 1507 1507 1507 1507 1508 1508 1508 1508 1508 1509 1508 1508 1508
1500 1500 1500 1501 1501 1502 1502 1502 1502 1502 1502 1502 1502 1502 1502 1503 1503 1503 1502 1502 1502 1502 1503 1503 1502 1503 1503 1504 1504 1504 1505 1505 1505 1505 1505 1505 1505 1505
1496 1496 1496 1497 1497 1498 1498 1498 1497 1497 1498 1497 1498 1498 1498 1498 1498 1498 1498 1498 1498 1498 1498 1499 1499 1499 1499 1499 1500 1501 1501 1501 1502 1502 1502 1502 1502 1502
1491 1491 1492 1492 1493 1493 1494 1494 1493 1494 1493 1493 1493 1493 1493 1493 1493 1493 1494 1494 1494 1494 1495 1495 1494 1495 1495 1495 1496 1497 1497 1498 1498 1498 1498 1498 1499 1499
1487 1487 1487 1488 1489 1489 1489 1489 1490 1490 1489 1489 1489 1488 1489 1488 1488 1489 1489 1489 1490 1490 1490 1491 1490 1491 1491 1491 1492 1492 1493 1494 1494 1494 1494 1495 1495 1495
1483 1483 1483 1484 1484 1484 1485 1485 1485 1485 1484 1484 1484 1484 1484 1484 1484 1484 1484 1485 1485 1485 1485 1486 1486 1486 1487 1487 1487 1488 1488 1489 1489 1490 1490 1491 1491 1491
1479 1479 1479 1479 1479 1480 1480 1480 1480 1480 1480 1480 1479 1480 1480 1480 1479 1479 1479 1479 1479 1480 1481 1481 1481 1482 1482 1483 1483 1483 1484 1484 1485 1486 1486 1486 1487 1487
1474 1474 1474 1474 1474 1475 1475 1475 1476 1476 1476 1476 1476 1475 1475 1475 1475 1475 1475 1475 1475 1475 1475 1476 1477 1477 1478 1478 1478 1479 1479 1480 1481 1481 1481 1481 1482 1483
1470 1469 1469 1470 1470 1470 1470 1471 1471 1471 1471 1471 1471 1471 1471 1471 1470 1470 1470 1470 1470 1470 1471 1471 1472 1472 1473 1473 1474 1474 1474 1475 1476 1476 1477 1477 1477 1478
1465 1465 1465 1465 1465 1466 1466 1466 1466 1466 1467 1467 1467 1466 1466 1466 1466 1466 1466 1466 1466 1466 1467 1467 1467 1467 1468 1468 1469 1470 1470 1470 1471 1471 1472 1472 1472 1473
1461 1461 1461 1461 1461 1461 1462 1462 1462 1462 1462 1462 1462 1462 1462 1461 1461 1461 1461 1461 1461 1462 1462 1462 1463 1463 1463 1464 1464 1465 1466 1466 1466 1466 1466 1467 1468 1468
1456 1456 1456 1456 1456 1457 1457 1457 1457 1457 1457 1457 1457 1457 1457 1457 1457 1457 1457 1457 1457 1457 1457 1457 1458 1460 1460 1460 1460 1460 1461 1462 1462 1462 1462 1462 1462 1462
1452 1452 1452 1452 1452 1452 1452 1452 1452 1452 1452 1452 1452 1452 1452 1452 1452 1452 1452 1452 1452 1452 1452 1453 1454 1455 1455 1455 1454 1455 1456 1458 1458 1458 1459 1459 1458 1457
1448 1448 1447 1447 1447 1447 1447 1447 1447 1447 1447 1447 1447 1447 1447 1447 1447 1447 1447 1447 1447 1447 1448 1448 1449 1449 1449 1450 1450 1451 1452 1453 1453 1453 1455 1455 1455 1455